K8VGL Weather Reports


time (UTC)temp
C
wind
direction
speed
KPH
gust
KPH
rain 1hr
cm
rain 24hr
cm
rain mn
cm
humidity
%
barometer
mb
20260906073030 21 262 0.0 9.7 0.00 0.03 0.00 91 1013.9
20260906071525 21 56 3.2 8.0 0.00 0.03 0.00 91 1013.9
20260906070022 22 326 1.6 8.0 0.00 0.03 0.00 92 1013.9
20260906064522 22 148 1.6 9.7 0.00 0.03 0.00 92 1013.8
20260906063021 22 61 1.6 4.8 0.00 0.03 0.00 92 1013.8
20260906061521 22 308 0.0 4.8 0.00 0.03 0.00 92 1013.8
20260906060025 22 83 1.6 8.0 0.00 0.03 0.00 91 1013.7
20260906054526 22 65 0.0 4.8 0.00 0.03 0.00 91 1013.5
20260906053013 23 293 0.0 6.4 0.00 0.03 0.00 91 1013.5
20260906051514 23 284 1.6 8.0 0.00 0.03 0.00 91 1013.5
20260906050012 23 71 0.0 8.0 0.00 0.03 0.00 91 1013.5
20260906044510 23 181 0.0 8.0 0.00 0.03 0.00 91 1013.3
20260906043014 23 67 1.6 9.7 0.00 0.03 0.00 90 1013.2
20260906041507 23 66 3.2 8.0 0.00 0.03 0.00 89 1013.3
20260906040004 23 173 0.0 8.0 0.00 0.03 0.03 88 1013.2
20260906034507 23 168 0.0 6.4 0.00 0.03 0.03 88 1013.1
20260906033009 24 340 3.2 12.9 0.00 0.03 0.03 88 1013.1
20260906031505 25 85 0.0 3.2 0.00 0.03 0.03 87 1012.9
20260906030001 25 88 1.6 11.3 0.00 0.03 0.03 86 1012.9
20260906024501 25 86 1.6 9.7 0.00 0.03 0.03 86 1012.7
20260906023105 25 331 1.6 4.8 0.00 0.03 0.03 87 1012.5
20260906021503 25 318 1.6 11.3 0.00 0.03 0.03 86 1012.2
20260906020101 25 350 1.6 4.8 0.00 0.03 0.03 86 1012.2
20260906014600 25 340 1.6 4.8 0.00 0.03 0.03 86 1011.9
20260906013107 25 340 0.0 3.2 0.00 0.03 0.03 85 1011.7
20260906011559 26 345 0.0 3.2 0.00 0.03 0.03 85 1011.7
20260906010058 26 308 0.0 4.8 0.00 0.03 0.03 84 1011.5
20260906004558 26 356 0.0 3.2 0.00 0.03 0.03 84 1011.2
20260906003058 26 300 0.0 6.4 0.00 0.03 0.03 83 1011.1
20260906001607 26 345 0.0 4.8 0.00 0.03 0.03 82 1010.9
20260906000057 26 328 0.0 4.8 0.00 0.03 0.03 80 1011.0
20260905234557 27 311 0.0 3.2 0.00 0.03 0.03 78 1011.0
20260905233102 27 340 0.0 0.0 0.00 0.03 0.03 78 1010.9
20260905231556 27 340 0.0 1.6 0.00 0.03 0.03 77 1011.0
20260905224615 27 345 0.0 3.2 0.00 0.03 0.03 83 1010.7
20260905223105 26 350 0.0 6.4 0.03 0.03 0.03 85 1010.5
20260905221558 26 4 0.0 4.8 0.03 0.03 0.03 87 1010.9
20260905220054 26 285 1.6 6.4 0.03 0.03 0.03 87 1010.7
20260905214555 28 315 1.6 3.2 0.03 0.03 0.03 83 1010.4
20260905213100 30 296 0.0 3.2 0.00 0.00 0.00 74 1010.9
20260905211552 31 7 0.0 3.2 0.00 0.00 0.00 70 1010.2
20260905210059 31 326 1.6 4.8 0.00 0.00 0.00 68 1010.5
20260905204550 32 321 1.6 6.4 0.00 0.00 0.00 64 1010.6
20260905203049 32 302 0.0 3.2 0.00 0.00 0.00 66 1010.7
20260905201548 32 333 1.6 6.4 0.00 0.00 0.00 63 1011.0
20260905200047 32 292 1.6 4.8 0.00 0.00 0.00 66 1011.1
20260905194548 32 336 0.0 4.8 0.00 0.00 0.00 65 1011.1
20260905193043 32 171 3.2 8.0 0.00 0.00 0.00 64 1011.3
20260905191542 32 328 1.6 8.0 0.00 0.00 0.00 65 1011.4
20260905190040 32 45 1.6 4.8 0.00 0.00 0.00 65 1011.8
20260905184547 31 135 0.0 4.8 0.00 0.00 0.00 67 1012.0
20260905183036 31 262 1.6 4.8 0.00 0.00 0.00 66 1012.2
20260905181535 31 38 0.0 6.4 0.00 0.00 0.00 66 1012.4
20260905180040 31 129 1.6 6.4 0.00 0.00 0.00 64 1012.6
20260905174530 31 132 1.6 9.7 0.00 0.00 0.00 68 1012.6
20260905173030 30 248 0.0 8.0 0.00 0.00 0.00 65 1012.7
20260905171529 30 280 1.6 4.8 0.00 0.00 0.00 66 1012.9
20260905170025 30 283 1.6 6.4 0.00 0.00 0.00 63 1013.1
20260905164526 30 140 3.2 6.4 0.00 0.00 0.00 65 1013.4
20260905163021 28 350 1.6 9.7 0.00 0.00 0.00 65 1013.5
20260905161516 28 179 1.6 11.3 0.00 0.00 0.00 67 1013.5
20260905160015 28 264 3.2 11.3 0.00 0.00 0.00 67 1013.5
20260905154511 27 2 3.2 12.9 0.00 0.00 0.00 69 1013.5
20260905153014 26 185 3.2 11.3 0.00 0.00 0.00 70 1013.5
20260905151511 26 259 1.6 9.7 0.00 0.00 0.00 73 1013.8
20260905150108 25 65 3.2 12.9 0.00 0.00 0.00 73 1013.8
20260905144558 25 254 1.6 12.9 0.00 0.00 0.00 75 1013.7
20260905143058 25 277 3.2 11.3 0.00 0.00 0.00 75 1014.0
20260905141555 24 70 1.6 8.0 0.00 0.00 0.00 76 1014.0
20260905140055 23 42 4.8 11.3 0.00 0.00 0.00 77 1014.1
20260905134556 23 137 3.2 11.3 0.00 0.00 0.00 79 1014.0
20260905133053 23 133 4.8 11.3 0.00 0.00 0.00 79 1014.1
20260905131553 22 135 3.2 12.9 0.00 0.00 0.00 80 1014.1
20260905130050 22 145 1.6 12.9 0.00 0.00 0.00 82 1014.2
20260905124549 22 165 4.8 11.3 0.00 0.00 0.00 82 1014.2
20260905123102 22 123 3.2 16.1 0.00 0.00 0.00 83 1014.2
20260905121553 22 96 1.6 6.4 0.00 0.00 0.00 83 1014.3
20260905120044 22 147 1.6 6.4 0.00 0.00 0.00 84 1014.0
20260905114542 22 140 3.2 12.9 0.00 0.00 0.00 84 1013.8
20260905113039 23 91 4.8 14.5 0.00 0.00 0.00 88 1013.4
20260905111536 22 80 3.2 11.3 0.00 0.00 0.00 97 1013.2
20260905110034 22 225 0.0 1.6 0.00 0.00 0.00 97 1012.5
20260905104533 22 225 0.0 0.0 0.00 0.00 0.00 97 1012.3
20260905103032 22 225 0.0 0.0 0.00 0.00 0.00 97 1012.4
20260905101534 22 225 0.0 0.0 0.00 0.00 0.00 97 1012.2
20260905100106 22 225 0.0 0.0 0.00 0.00 0.00 96 1012.1
20260905094541 23 225 0.0 0.0 0.00 0.00 0.00 96 1012.1
20260905093029 23 225 0.0 0.0 0.00 0.00 0.00 96 1012.2
20260905091528 23 225 0.0 0.0 0.00 0.00 0.00 96 1012.1
20260905090027 23 225 0.0 0.0 0.00 0.00 0.00 96 1012.2
20260905084526 23 225 0.0 0.0 0.00 0.00 0.00 96 1012.1
20260905083028 23 225 0.0 0.0 0.00 0.00 0.00 96 1012.1
20260905081526 23 225 0.0 0.0 0.00 0.00 0.00 97 1011.8
20260905080024 23 225 0.0 0.0 0.00 0.00 0.00 97 1011.5
20260905074528 23 225 0.0 0.0 0.00 0.00 0.00 97 1011.5